Regional Weather Roundup
Issued by NWS

Home | Current Version | Previous Version | Graphics & Text | Print | Product List | Glossary On
Versions: 1 2 3 4 5 6 7 8 9 10 11 12 13 14 15 16 17 18 19 20 21 22 23 24 25 26 27 28 29 30 31 32 33 34 35 36 37 38 39 40 41 42 43 44 45 46 47 48 49 50
000
ASUS43 KIND 102209
RWRIN

WEATHER ROUNDUP FOR INDIANA
NATIONAL WEATHER SERVICE INDIANAPOLIS IN
600 PM EDT THU JUL 10 2014

NOTE: "FAIR" INDICATES FEW OR NO CLOUDS BELOW 12,000 FEET WITH NO
SIGNIFICANT WEATHER AND/OR OBSTRUCTIONS TO VISIBILITY.

* - STATION DOES NOT REPORT WEATHER SUCH AS PRECIPITATION OR FOG.

+ - STATION NOT QUALITY CONTROLLED BY THE NATIONAL WEATHER SERVICE.
    USE DATA WITH CAUTION...ESPECIALLY DEWPOINT AND RELATIVE
    HUMIDITY OBSERVATIONS.

INZ001>003-010>013-019-020-102300-
NORTHWEST INDIANA

CITY           SKY/WX    TMP DP  RH WIND       PRES   REMARKS
GARY /AIRPORT/ SUNNY     75  52  43 E9        30.15F
KNOX *+        SUNNY     75  48  37 N5        30.14F
LA PORTE +     SUNNY     73  48  41 N7        30.17S
MICHIGAN CITY+ SUNNY     72  45  37 N8        30.17S
MONTICELLO +   MOSUNNY   76  56  49 E5        30.14S
RENSSELAER +   MOSUNNY   77  54  44 E7        30.15R
VALPARAISO     SUNNY     75  48  38 NE7       30.16F

$$

LMZ046-743>745-102300-
SOUTHERN LAKE MICHIGAN

STATION/POSITION TIME  TEMP WIND        PRES
                       AIR  DIR/SP/G
                 (UTC) (F)  (DEG/KT/KT) (MB)
MICHIGAN CITY    2200   68   20/  8/ 10   N/A

$$

INZ004-005-014>016-021>024-102300-
NORTH CENTRAL INDIANA

CITY           SKY/WX    TMP DP  RH WIND       PRES   REMARKS
ELKHART        MOSUNNY   75  48  38 NW7       30.16
GOSHEN         MOSUNNY   76  53  44 NE10      30.14F
LOGANSPORT +   PTSUNNY   77  50  38 E5        30.15S
PERU/GRISSOM   SUNNY     74  55  50 N6        30.14F
ROCHESTER +    MOSUNNY   79  50  36 NE7       30.15S
SOUTH BEND     SUNNY     76  52  43 VRB3      30.15F
WARSAW +       MOSUNNY   73  52  46 N6        30.14F

$$

INZ006>009-017-018-025>027-102300-
NORTHEAST INDIANA

CITY           SKY/WX    TMP DP  RH WIND       PRES   REMARKS
ANGOLA *+      MOSUNNY   75  55  50 VRB5      30.15S
AUBURN +       PTSUNNY   77  46  33 N8        30.15F
FORT WAYNE     MOSUNNY   76  53  44 NE7       30.14F
HUNTINGTON +   SUNNY     75  52  44 N5        30.14F

$$

INZ028-029-035-036-043>045-051>053-102300-
WEST CENTRAL INDIANA

CITY           SKY/WX    TMP DP  RH WIND       PRES   REMARKS
GREENCASTLE +  SUNNY     77  54  44 N7        30.13F
LAFAYETTE      SUNNY     77  52  41 NE9       30.14S
TERRE HAUTE    MOSUNNY   79  56  45 E5        30.12F

$$

INZ030>032-037>040-046>048-054>057-064-065-102300-
CENTRAL INDIANA

CITY           SKY/WX    TMP DP  RH WIND       PRES   REMARKS
CP ATTERBURY + SUNNY     79  52  38 NE7       30.12S
FRANKFORT +    SUNNY     75  54  46 CALM      30.16S
GREENWOOD *+   MOSUNNY   79  57  47 NE8       30.13
INDIANAPOLIS   MOSUNNY   78  51  38 NE6       30.12S
-EAGLE CREEK   MOSUNNY   78  51  38 NW9       30.12F
KOKOMO *+      MOSUNNY   77  54  44 NE10      30.14F
MARION +       PTSUNNY   75  51  41 NW9       30.15S
MT COMFORT *+  SUNNY     77  54  44 N9        30.13F
SHELBYVILLE    MOSUNNY   80  57  45 N5        30.12S
ZIONSVILLE +   MOSUNNY   77  51  40 N9        30.14F

$$

INZ033-034-041-042-049-050-058-059-102300-
EAST CENTRAL INDIANA

CITY           SKY/WX    TMP DP  RH WIND       PRES   REMARKS
MUNCIE         SUNNY     77  52  41 N7        30.13F

$$

INZ060-061-067>069-081>083-085>088-102300-
SOUTHWEST INDIANA

CITY           SKY/WX    TMP DP  RH WIND       PRES   REMARKS
EVANSVILLE     MOSUNNY   86  55  34 VRB5      30.08F
HUNTINGBURG *+ PTSUNNY   82  55  39 E3        30.09S
WASHINGTON +   SUNNY     81  55  40 E3        30.08F

$$

INZ062-063-066-070>080-084-089>092-102300-
SOUTH CENTRAL AND SOUTHEAST INDIANA

CITY           SKY/WX    TMP DP  RH WIND       PRES   REMARKS
BLOOMINGTON    MOSUNNY   80  56  43 NE8       30.11F
NORTH VERNON + SUNNY     79  59  50 N3        30.11

$$



USA.gov is the U.S. government's official web portal to all federal, state and local government web resources and services.